JA0BES-13 Weather Reports


Display with metric or nautical units.
time (UTC)temp
F
wind
direction
speed
MPH
gust
MPH
rain 1hr
in
rain 24hr
in
rain mn
in
humidity
%
barometer
mb
20181114212114 40 225 0.0 0.0 0.00 0.00 0.00 99 1020.9
20181114211113 40 225 0.0 0.0 0.00 0.00 0.00 100 1020.8
20181114210114 41 225 0.0 0.0 0.00 0.00 0.00 100 1020.7
20181114205113 41 225 0.0 0.0 0.00 0.00 0.00 99 1020.8
20181114204113 41 225 0.0 0.0 0.00 0.00 0.00 99 1020.5
20181114203112 41 225 0.0 0.0 0.00 0.00 0.00 99 1020.4
20181114202112 40 225 0.0 0.0 0.00 0.00 0.00 98 1020.4
20181114201111 40 225 0.0 0.0 0.00 0.00 0.00 97 1020.4
20181114200111 40 225 0.0 0.0 0.00 0.00 0.00 97 1020.2
20181114195111 41 225 0.0 0.0 0.00 0.00 0.00 96 1020.3
20181114194111 41 225 0.0 0.0 0.00 0.00 0.00 96 1020.0
20181114193110 41 225 0.0 0.0 0.00 0.00 0.00 96 1020.1
20181114192110 41 225 0.0 0.0 0.00 0.00 0.00 96 1020.0
20181114191109 42 225 0.0 0.0 0.00 0.00 0.00 95 1019.9
20181114190109 42 225 0.0 0.0 0.00 0.00 0.00 95 1019.8
20181114185109 42 225 0.0 0.0 0.00 0.00 0.00 95 1019.6
20181114184108 42 225 0.0 0.0 0.00 0.00 0.00 95 1019.7
20181114183108 42 225 0.0 0.0 0.00 0.00 0.00 95 1019.7
20181114182108 42 225 0.0 0.0 0.00 0.00 0.00 96 1019.7
20181114181107 42 225 0.0 0.0 0.00 0.00 0.00 95 1019.7
20181114180107 42 225 0.0 0.0 0.00 0.00 0.00 95 1019.7
20181114175106 42 225 0.0 0.0 0.00 0.00 0.00 95 1019.6
20181114174106 42 225 0.0 0.0 0.00 0.00 0.00 95 1019.6
20181114173106 41 225 0.0 0.0 0.00 0.00 0.00 95 1019.8
20181114172105 41 225 0.0 0.0 0.00 0.00 0.00 94 1019.8
20181114171106 41 225 0.0 0.0 0.00 0.00 0.00 94 1019.6
20181114170105 41 225 0.0 0.0 0.00 0.00 0.00 94 1019.4
20181114165104 41 225 0.0 0.0 0.00 0.00 0.00 94 1019.5
20181114164104 41 180 0.0 0.0 0.00 0.00 0.00 93 1019.4
20181114163103 41 225 0.0 0.0 0.00 0.00 0.00 94 1019.3
20181114162103 41 225 0.0 0.0 0.00 0.00 0.00 93 1019.3
20181114161103 41 225 0.0 0.0 0.00 0.00 0.00 93 1019.1
20181114160103 41 225 0.0 0.0 0.00 0.00 0.00 93 1019.1
20181114155102 41 225 0.0 1.0 0.00 0.00 0.00 92 1018.8
20181114154102 42 225 0.0 0.0 0.00 0.00 0.00 92 1018.9
20181114153102 42 225 0.0 0.0 0.00 0.00 0.00 91 1018.9
20181114152101 42 225 0.0 0.0 0.00 0.00 0.00 91 1018.9
20181114151101 42 225 0.0 0.0 0.00 0.00 0.00 91 1018.9
20181114150101 42 225 0.0 0.0 0.00 0.00 0.00 91 1018.8
20181114145100 42 225 0.0 0.0 0.00 0.00 0.00 91 1018.9
20181114144100 43 225 0.0 0.0 0.00 0.00 0.00 91 1018.9
20181114143059 43 225 0.0 0.0 0.00 0.00 0.00 90 1018.8
20181114142059 43 225 0.0 0.0 0.00 0.00 0.00 90 1018.9
20181114141059 43 225 0.0 0.0 0.00 0.00 0.00 90 1018.8
20181114140058 44 225 0.0 0.0 0.00 0.00 0.00 90 1019.0
20181114135058 44 225 0.0 0.0 0.00 0.00 0.00 89 1018.9
20181114134058 44 225 0.0 0.0 0.00 0.00 0.00 89 1018.9
20181114133057 44 225 0.0 0.0 0.00 0.00 0.00 88 1018.9
20181114132057 44 225 0.0 0.0 0.00 0.00 0.00 88 1018.9
20181114131056 45 225 0.0 0.0 0.00 0.00 0.00 89 1018.9
20181114130056 45 225 0.0 0.0 0.00 0.00 0.00 88 1018.8
20181114125056 45 225 0.0 0.0 0.00 0.00 0.00 88 1018.8
20181114124056 46 225 0.0 0.0 0.00 0.00 0.00 87 1018.8
20181114123055 46 225 0.0 0.0 0.00 0.00 0.00 87 1018.7
20181114122055 46 225 0.0 0.0 0.00 0.00 0.00 87 1018.7
20181114121054 46 225 0.0 0.0 0.00 0.00 0.00 87 1018.6
20181114120054 46 225 0.0 0.0 0.00 0.00 0.00 87 1018.7
20181114115053 46 225 0.0 0.0 0.00 0.00 0.00 86 1018.4
20181114114053 46 225 0.0 0.0 0.00 0.00 0.00 86 1018.4
20181114113053 47 225 0.0 0.0 0.00 0.00 0.00 86 1018.2
20181114112053 47 225 0.0 0.0 0.00 0.00 0.00 85 1018.2
20181114111052 47 225 0.0 0.0 0.00 0.00 0.00 84 1018.0
20181114110052 48 225 0.0 0.0 0.00 0.00 0.00 84 1017.9
20181114105051 48 225 0.0 0.0 0.00 0.00 0.00 85 1017.9
20181114104051 48 225 0.0 0.0 0.00 0.00 0.00 84 1017.8
20181114103051 48 225 0.0 0.0 0.00 0.00 0.00 84 1017.9
20181114102051 48 225 0.0 0.0 0.00 0.00 0.00 84 1017.9
20181114101050 48 225 0.0 0.0 0.00 0.00 0.00 84 1017.9
20181114100050 49 225 0.0 3.0 0.00 0.00 0.00 84 1017.8
20181114095050 49 101 2.0 2.0 0.00 0.00 0.00 84 1017.6
20181114094049 49 225 0.0 1.0 0.00 0.00 0.00 83 1017.5
20181114093048 50 315 0.0 0.0 0.00 0.00 0.00 82 1017.3
20181114092048 50 225 0.0 1.0 0.00 0.00 0.00 82 1017.4
20181114091048 50 225 0.0 1.0 0.00 0.00 0.00 82 1017.3
20181114090048 50 220 0.0 2.0 0.00 0.00 0.00 80 1017.2
20181114085047 51 155 1.0 2.0 0.00 0.00 0.00 79 1017.0
20181114084047 51 245 0.0 2.0 0.00 0.00 0.00 78 1016.8
20181114083046 52 190 0.0 1.0 0.00 0.00 0.00 77 1016.9
20181114082046 52 236 0.0 2.0 0.00 0.00 0.00 76 1016.7
20181114081046 53 229 0.0 1.0 0.00 0.00 0.00 74 1016.5
20181114080046 53 252 0.0 1.0 0.00 0.00 0.00 70 1016.5
20181114075045 55 229 0.0 1.0 0.00 0.00 0.00 69 1016.6
20181114074045 55 225 0.0 2.0 0.00 0.00 0.00 68 1016.5
20181114073044 56 207 0.0 1.0 0.00 0.00 0.00 67 1016.3
20181114072044 56 222 0.0 1.0 0.00 0.00 0.00 65 1016.3
20181114071044 57 211 0.0 2.0 0.00 0.00 0.00 64 1016.2
20181114070043 59 270 0.0 1.0 0.00 0.00 0.00 63 1016.0
20181114065043 60 125 2.0 2.0 0.00 0.00 0.00 63 1015.9
20181114064043 61 27 0.0 2.0 0.00 0.00 0.00 63 1015.8
20181114063042 62 241 1.0 2.0 0.00 0.00 0.00 62 1015.6
20181114062042 62 229 0.0 1.0 0.00 0.00 0.00 63 1015.4
20181114061042 62 263 1.0 1.0 0.00 0.00 0.00 62 1015.4
20181114060041 63 243 0.0 1.0 0.00 0.00 0.00 61 1015.6
20181114055041 63 225 0.0 0.0 0.00 0.00 0.00 62 1015.4
20181114054041 64 93 0.0 3.0 0.00 0.00 0.00 61 1015.4
20181114053040 64 221 1.0 3.0 0.00 0.00 0.00 62 1015.3
20181114052040 64 218 0.0 1.0 0.00 0.00 0.00 63 1015.3
20181114051039 64 225 0.0 2.0 0.00 0.00 0.00 62 1015.1
20181114050039 63 220 0.0 1.0 0.00 0.00 0.00 64 1015.0
20181114045039 63 131 0.0 2.0 0.00 0.00 0.00 65 1015.0
20181114044038 62 90 1.0 3.0 0.00 0.00 0.00 65 1014.9
20181114043038 61 90 1.0 3.0 0.00 0.00 0.00 67 1014.9
20181114042038 60 135 0.0 2.0 0.00 0.00 0.00 68 1014.8
20181114041037 60 159 1.0 2.0 0.00 0.00 0.00 66 1014.9
20181114040037 61 247 1.0 2.0 0.00 0.00 0.00 67 1014.9
20181114035037 62 252 1.0 1.0 0.00 0.00 0.00 67 1014.8
20181114034036 62 205 1.0 1.0 0.00 0.00 0.00 65 1014.9
20181114033036 62 222 0.0 1.0 0.00 0.00 0.00 66 1014.8
20181114032036 63 218 1.0 1.0 0.00 0.00 0.00 65 1015.0
20181114031035 63 270 0.0 1.0 0.00 0.00 0.00 66 1014.8
20181114030035 63 232 0.0 1.0 0.00 0.00 0.00 65 1015.0
20181114025034 63 236 1.0 2.0 0.00 0.00 0.00 64 1015.0
20181114024034 64 225 0.0 1.0 0.00 0.00 0.00 64 1015.2
20181114023034 66 265 2.0 3.0 0.00 0.00 0.00 65 1015.0
20181114022034 65 207 0.0 2.0 0.00 0.00 0.00 67 1015.0
20181114021033 64 234 0.0 3.0 0.00 0.00 0.00 66 1015.2
20181114015032 63 191 0.0 2.0 0.00 0.00 0.00 70 1015.6
20181114014032 63 106 1.0 3.0 0.00 0.00 0.00 68 1015.6
20181114013032 62 281 1.0 2.0 0.00 0.00 0.00 73 1015.6
20181114012031 62 185 0.0 3.0 0.00 0.00 0.00 74 1015.5
20181114011031 61 250 1.0 1.0 0.00 0.00 0.00 77 1015.7
20181114010031 60 162 0.0 2.0 0.00 0.00 0.00 80 1015.6
20181114005030 58 211 0.0 1.0 0.00 0.00 0.00 84 1015.7
20181114004030 56 170 1.0 2.0 0.00 0.00 0.00 86 1015.6
20181114003029 54 81 1.0 2.0 0.00 0.00 0.00 90 1015.7
20181114002029 52 229 1.0 2.0 0.00 0.00 0.00 92 1015.3
20181114001029 51 186 0.0 2.0 0.00 0.00 0.00 93 1015.4
20181114000029 51 106 0.0 1.0 0.00 0.00 0.00 95 1015.3
20181113235028 50 128 2.0 3.0 0.00 0.00 0.00 97 1015.3
20181113234028 50 225 0.0 1.0 0.00 0.00 0.00 98 1015.1
20181113233027 49 171 0.0 1.0 0.00 0.00 0.00 100 1015.2
20181113232027 49 123 1.0 2.0 0.00 0.00 0.00 100 1015.4
20181113231027 49 140 1.0 2.0 0.00 0.00 0.00 100 1015.4
20181113230026 48 225 0.0 1.0 0.00 0.00 0.00 100 1014.9
20181113225026 47 225 0.0 0.0 0.00 0.00 0.00 100 1014.8
20181113224026 47 216 0.0 3.0 0.00 0.00 0.00 100 1014.7
20181113223025 47 243 0.0 2.0 0.00 0.00 0.00 100 1014.6
20181113222025 47 141 2.0 2.0 0.00 0.00 0.00 100 1014.5
20181113221025 46 234 0.0 2.0 0.00 0.00 0.00 100 1014.4
20181113220024 46 99 2.0 2.0 0.00 0.00 0.00 100 1014.3
20181113215024 46 180 0.0 1.0 0.00 0.00 0.00 100 1014.3
20181113214024 46 126 1.0 1.0 0.00 0.00 0.00 100 1014.2
20181113213023 46 225 0.0 0.0 0.00 0.00 0.00 100 1014.0